Total_Precipitation_Accumulation
1.32 1.24 1.16 1.11 0.97 0.90 0.87 0.94 0.92 0.82 0.75 0.68 0.58 0.48 0.44 0.45 0.41 0.43 0.43 0.44 0.53 0.71 0.95 1.09 1.07 1.02 1.01 1.06 1.05 0.97 0.91 0.83 0.76 0.72 0.70 0.70 0.65 0.66 0.70 0.71 0.73 0.75 0.76
1.51 1.43 1.27 1.17 1.08 0.98 0.93 0.98 1.01 0.92 0.86 0.77 0.68 0.59 0.53 0.51 0.44 0.42 0.43 0.46 0.48 0.57 0.81 1.08 1.25 1.31 1.32 1.36 1.30 1.19 1.06 0.97 0.90 0.85 0.82 0.82 0.76 0.72 0.75 0.74 0.74 0.74 0.75
1.64 1.61 1.49 1.28 1.14 1.14 1.10 1.10 1.14 1.13 1.01 0.87 0.77 0.70 0.63 0.57 0.51 0.46 0.46 0.46 0.46 0.45 0.60 0.89 1.17 1.32 1.41 1.46 1.49 1.41 1.24 1.10 0.99 0.92 0.87 0.89 0.88 0.84 0.81 0.83 0.86 0.84 0.84
1.74 1.80 1.68 1.53 1.40 1.36 1.34 1.26 1.19 1.10 1.00 0.87 0.79 0.75 0.70 0.66 0.59 0.59 0.59 0.51 0.47 0.41 0.46 0.62 0.82 1.05 1.28 1.34 1.47 1.59 1.41 1.27 1.12 1.00 0.96 0.99 1.02 0.97 0.94 0.96 0.96 0.94 0.94
1.93 1.97 1.91 1.75 1.68 1.61 1.57 1.46 1.33 1.18 1.06 0.94 0.87 0.86 0.83 0.77 0.72 0.68 0.63 0.56 0.52 0.49 0.49 0.50 0.55 0.69 0.89 1.10 1.31 1.54 1.62 1.51 1.31 1.18 1.07 1.03 1.02 1.04 1.08 1.11 1.12 1.11 1.13
2.27 2.15 2.15 2.07 1.97 1.81 1.71 1.69 1.55 1.38 1.21 1.14 1.09 0.99 0.91 0.83 0.81 0.77 0.71 0.64 0.60 0.59 0.63 0.63 0.63 0.63 0.68 0.84 1.15 1.41 1.61 1.71 1.56 1.33 1.19 1.12 1.13 1.15 1.21 1.28 1.33 1.38 1.40
2.61 2.45 2.27 2.28 2.23 2.03 1.79 1.78 1.79 1.64 1.49 1.45 1.41 1.19 1.00 0.90 0.84 0.78 0.80 0.80 0.72 0.66 0.69 0.77 0.82 0.76 0.63 0.65 0.82 1.06 1.30 1.52 1.67 1.62 1.43 1.30 1.28 1.34 1.43 1.53 1.61 1.62 1.61
2.86 2.66 2.48 2.38 2.35 2.30 2.06 1.88 1.94 1.91 1.76 1.71 1.73 1.67 1.46 1.25 0.98 0.84 0.82 0.81 0.79 0.78 0.73 0.72 0.77 0.79 0.76 0.65 0.63 0.74 0.90 1.16 1.48 1.77 1.85 1.73 1.64 1.63 1.73 1.84 1.93 1.97 1.96
3.13 2.92 2.68 2.62 2.55 2.53 2.43 2.22 2.11 2.08 2.02 1.91 1.91 2.08 1.87 1.53 1.18 0.98 0.92 0.89 0.85 0.88 0.88 0.82 0.79 0.79 0.80 0.74 0.69 0.69 0.75 0.91 1.26 1.64 1.98 2.09 2.06 2.08 2.23 2.37 2.41 2.48 2.42
3.17 3.17 2.98 2.76 2.67 2.62 2.57 2.62 2.60 2.44 2.33 2.13 1.98 1.86 1.79 1.63 1.56 1.33 1.09 1.04 0.99 0.93 0.97 0.95 0.89 0.87 0.85 0.83 0.83 0.84 0.86 0.94 1.20 1.64 2.02 2.27 2.40 2.60 2.87 3.01 3.02 3.02 2.88
3.03 3.16 3.13 2.95 2.65 2.50 2.43 2.49 2.58 2.63 2.48 2.27 2.10 1.97 1.85 1.64 1.53 1.57 1.38 1.20 1.17 1.02 0.97 1.02 1.03 1.03 1.05 1.05 1.02 1.06 1.11 1.14 1.37 1.78 2.19 2.57 2.87 3.11 3.37 3.55 3.55 3.48 3.34
2.88 2.94 2.97 2.89 2.74 2.52 2.38 2.39 2.51 2.60 2.63 2.54 2.32 2.10 2.01 1.86 1.61 1.61 1.56 1.40 1.40 1.27 1.12 1.09 1.13 1.18 1.19 1.24 1.25 1.34 1.32 1.39 1.55 1.82 2.26 2.65 2.94 3.13 3.35 3.68 3.85 3.80 3.74
2.77 2.82 2.92 2.84 2.76 2.57 2.46 2.38 2.40 2.40 2.43 2.49 2.43 2.24 2.02 1.86 1.73 1.79 1.82 1.70 1.59 1.46 1.42 1.32 1.21 1.19 1.22 1.28 1.37 1.55 1.42 1.43 1.48 1.66 2.06 2.45 2.55 2.63 2.78 3.03 3.37 3.56 3.62
2.68 2.68 2.83 2.82 2.75 2.66 2.56 2.44 2.36 2.29 2.27 2.27 2.23 2.16 2.03 1.83 1.73 1.78 1.90 2.06 2.05 1.75 1.56 1.48 1.35 1.28 1.28 1.30 1.41 1.58 1.41 1.56 1.52 1.60 1.81 2.01 1.98 1.92 2.03 2.25 2.48 2.77 2.99
2.56 2.51 2.60 2.66 2.64 2.59 2.57 2.50 2.38 2.22 2.15 2.13 2.05 1.98 1.93 1.80 1.69 1.68 1.76 1.97 2.32 2.26 1.83 1.49 1.45 1.39 1.36 1.33 1.47 1.39 1.28 1.56 1.58 1.54 1.56 1.60 1.57 1.55 1.66 1.81 1.99 2.24 2.46
2.43 2.35 2.35 2.43 2.48 2.45 2.42 2.47 2.36 2.19 2.13 2.03 1.96 1.92 1.85 1.77 1.74 1.74 1.80 1.87 2.03 2.20 2.02 1.52 1.35 1.33 1.37 1.36 1.49 1.33 1.30 1.56 1.51 1.48 1.44 1.40 1.41 1.45 1.53 1.68 1.77 1.91 2.16
2.24 2.30 2.25 2.29 2.38 2.42 2.37 2.37 2.36 2.26 2.13 2.00 1.91 1.86 1.80 1.73 1.75 1.72 1.76 1.84 1.89 1.96 1.95 1.52 1.29 1.29 1.39 1.39 1.42 1.33 1.29 1.26 1.21 1.34 1.31 1.29 1.28 1.31 1.42 1.55 1.67 1.75 1.89
1.96 2.02 2.07 2.12 2.14 2.19 2.23 2.25 2.23 2.19 2.15 2.03 1.94 1.90 1.83 1.80 1.89 1.89 1.90 1.89 1.86 1.82 1.83 1.65 1.38 1.29 1.29 1.24 1.21 1.23 1.23 1.22 1.13 1.31 1.29 1.24 1.28 1.32 1.37 1.42 1.49 1.61 1.71
1.83 1.88 1.89 1.99 2.03 2.01 2.06 2.10 2.11 2.12 2.12 2.08 2.02 1.99 1.93 1.92 1.96 1.95 1.92 1.89 1.83 1.77 1.74 1.69 1.52 1.37 1.35 1.29 1.27 1.25 1.22 1.21 1.13 1.23 1.28 1.26 1.29 1.34 1.36 1.41 1.44 1.46 1.50
1.63 1.67 1.71 1.74 1.83 1.88 1.92 2.01 2.08 2.07 2.08 2.08 2.05 2.01 1.95 1.93 1.89 1.84 1.80 1.75 1.74 1.78 1.78 1.77 1.65 1.51 1.45 1.42 1.44 1.47 1.42 1.29 1.23 1.12 1.21 1.20 1.22 1.27 1.29 1.30 1.33 1.33 1.35
1.54 1.58 1.61 1.63 1.65 1.71 1.80 1.90 2.01 2.09 2.10 2.10 2.09 2.01 1.89 1.85 1.78 1.75 1.72 1.67 1.68 1.81 1.88 1.89 1.78 1.63 1.51 1.51 1.54 1.46 1.46 1.41 1.34 1.22 1.18 1.13 1.09 1.06 1.08 1.17 1.25 1.35 1.41
1.55 1.57 1.64 1.68 1.70 1.75 1.98 2.08 2.05 2.06 2.08 2.03 1.95 1.83 1.75 1.74 1.69 1.73 1.76 1.73 1.79 1.94 2.04 1.98 1.81 1.59 1.36 1.29 1.37 1.52 1.65 1.72 1.64 1.29 1.22 1.25 1.18 1.17 1.09 1.07 1.27 1.39 1.49
1.65 1.73 1.76 1.83 1.84 1.86 1.94 1.84 1.89 1.89 1.93 1.93 1.84 1.71 1.62 1.52 1.51 1.39 1.53 1.66 1.70 1.80 1.83 1.77 1.68 1.42 1.29 1.25 1.49 1.75 1.75 1.68 1.44 1.22 1.30 1.44 1.32 1.27 1.18 1.24 1.43 1.37 1.47
1.62 1.78 1.83 1.86 1.85 1.84 1.84 1.71 1.70 1.58 1.58 1.62 1.63 1.61 1.55 1.50 1.43 1.41 1.46 1.54 1.44 1.39 1.40 1.32 1.31 1.31 1.31 1.33 1.54 1.82 1.84 1.82 1.57 1.37 1.36 1.55 1.39 1.32 1.24 1.27 1.44 1.36 1.38
1.50 1.58 1.67 1.69 1.65 1.64 1.64 1.54 1.54 1.44 1.43 1.40 1.37 1.42 1.47 1.41 1.52 1.63 1.58 1.53 1.36 1.22 1.24 1.33 1.40 1.40 1.48 1.50 1.59 1.96 2.15 2.21 1.97 1.56 1.35 1.36 1.26 1.25 1.31 1.34 1.41 1.47 1.42
1.33 1.31 1.33 1.32 1.31 1.31 1.38 1.35 1.35 1.27 1.31 1.28 1.28 1.32 1.46 1.43 1.54 1.65 1.52 1.50 1.41 1.22 1.16 1.16 1.16 1.17 1.16 1.23 1.45 1.67 2.13 2.47 2.14 1.75 1.29 1.35 1.36 1.46 1.77 1.48 1.37 1.40 1.42